Weather History for South Bend, IN

Change the Weather History Date:

Friday, July 25, 2014

  Actual Average Record
Temperature  
Mean Temperature 64 °F 73 °F  
Max Temperature 76 °F 83 °F 105 °F (1934)
Min Temperature 52 °F 63 °F 48 °F (1911)
Degree Days  
Heating Degree Days 1 0  
Month to date heating degree days 10 0  
Since 1 June heating degree days 27 44  
Since 1 July heating degree days 10 0  
Cooling Degree Days 0 8  
Month to date cooling degree days 115 200  
Year to date cooling degree days 416 421  
Since 1 June cooling degree days 331 365  
Growing Degree Days 14 (Base 50)    
Moisture  
Dew Point 54 °F    
Average Humidity 67    
Maximum Humidity 83    
Minimum Humidity 50    
Precipitation  
Precipitation T in 0.13 in 2.15 in (2007)
Month to date precipitation 1.75 3.21  
Year to date precipitation 25.97 20.72  
Sea Level Pressure  
Sea Level Pressure 30.02 in    
Wind  
Wind Speed 6 mph (South)    
Max Wind Speed 20 mph    
Max Gust Speed 24 mph    
Visibility 10 miles    
Events      
T = Trace of Precipitation, MM = Missing Value Source: NWS Daily Summary

Daily Weather History Graph

Daily Weather History Graph

Search for Another Location

Airport:

Trip Planner

Search our weather history database for the weather conditions in past years. The results will help you decide how hot, cold, wet, or windy it might be!

Date:

Astronomy

Jul. 25, 2014 Rise Set
Actual Time 6:32 AM EDT 9:10 PM EDT
Civil Twilight 6:00 AM EDT 9:42 PM EDT
Nautical Twilight 5:20 AM EDT 10:22 PM EDT
Astronomical Twilight 4:34 AM EDT 11:07 PM EDT
Moon 5:32 AM EDT (7/25) 8:06 PM EDT (7/25)
Length of Visible Light 15h 41m
Length of Day
14h 37m
Waning Crescent, 1% of the Moon is Illuminated
Jul 25
Waning Crescent
Jul 26
New
Aug 3
First Quarter
Aug 10
Full
Aug 17
Last Quarter

Hourly Weather History & Observations

Time (EDT) Temp. Dew Point Humidity Pressure Visibility Wind Dir Wind Speed Gust Speed Precip Events Conditions
12:54 AM 60.1 °F 52.0 °F 75% 30.07 in 10.0 mi ESE 3.5 mph - N/A   Clear
1:54 AM 59.0 °F 51.1 °F 75% 30.06 in 10.0 mi East 3.5 mph - N/A   Clear
2:54 AM 57.9 °F 51.1 °F 78% 30.06 in 10.0 mi ESE 3.5 mph - N/A   Clear
3:54 AM 54.0 °F 48.9 °F 83% 30.09 in 10.0 mi Calm Calm - N/A   Clear
4:54 AM 55.0 °F 50.0 °F 83% 30.08 in 10.0 mi Calm Calm - N/A   Clear
5:54 AM 55.9 °F 48.9 °F 77% 30.06 in 10.0 mi Calm Calm - N/A   Clear
6:54 AM 54.0 °F 48.0 °F 80% 30.06 in 10.0 mi SSE 3.5 mph - N/A   Clear
7:54 AM 61.0 °F 52.0 °F 72% 30.06 in 10.0 mi SE 4.6 mph - N/A   Clear
8:54 AM 62.1 °F 53.1 °F 72% 30.11 in 10.0 mi West 6.9 mph - N/A   Clear
9:54 AM 64.0 °F 54.0 °F 70% 30.11 in 10.0 mi SW 5.8 mph - N/A   Clear
10:54 AM 66.9 °F 55.0 °F 66% 30.06 in 10.0 mi SSW 10.4 mph - N/A   Clear
11:54 AM 69.1 °F 57.0 °F 65% 30.06 in 10.0 mi SSW 9.2 mph - N/A   Clear
12:54 PM 73.9 °F 55.9 °F 53% 30.03 in 10.0 mi South 9.2 mph - N/A   Clear
1:54 PM 75.0 °F 55.0 °F 50% 30.01 in 10.0 mi South 8.1 mph - N/A   Partly Cloudy
2:54 PM 73.9 °F 55.9 °F 53% 29.99 in 10.0 mi SSW 12.7 mph - N/A   Mostly Cloudy
3:54 PM 75.0 °F 55.9 °F 51% 29.96 in 10.0 mi SSW 13.8 mph - N/A   Scattered Clouds
4:54 PM 73.9 °F 55.9 °F 53% 29.99 in 10.0 mi SW 9.2 mph - 0.00 in   Overcast
5:54 PM 72.0 °F 57.0 °F 59% 29.98 in 10.0 mi South 5.8 mph - N/A   Overcast
6:54 PM 72.0 °F 57.9 °F 61% 29.97 in 10.0 mi SSW 4.6 mph - N/A   Overcast
7:54 PM 72.0 °F 57.9 °F 61% 29.96 in 10.0 mi SW 6.9 mph - N/A   Partly Cloudy
8:54 PM 71.1 °F 55.9 °F 59% 29.95 in 10.0 mi South 6.9 mph - N/A   Scattered Clouds
9:54 PM 68.0 °F 57.0 °F 68% 29.96 in 10.0 mi South 5.8 mph - N/A   Partly Cloudy
10:54 PM 66.0 °F 57.0 °F 73% 29.96 in 10.0 mi South 4.6 mph - N/A   Clear
11:54 PM 64.9 °F 57.0 °F 75% 29.96 in 10.0 mi South 4.6 mph - N/A   Clear